TimePST,TemperatureF,Dew PointF,Humidity,Sea Level PressureIn,VisibilityMPH,Wind Direction,Wind SpeedMPH,Gust SpeedMPH,PrecipitationIn,Events,Conditions,WindDirDegrees,DateUTC
12:56 AM,45.0,15.1,30,30.34,10.0,West,9.2,-,N/A,,Clear,260,2014-01-14 08:56:00
1:56 AM,45.0,16.0,31,30.34,10.0,West,10.4,-,N/A,,Clear,260,2014-01-14 09:56:00
2:56 AM,46.0,14.0,28,30.34,10.0,WSW,9.2,-,N/A,,Clear,250,2014-01-14 10:56:00
3:56 AM,45.0,14.0,29,30.34,10.0,West,11.5,-,N/A,,Clear,270,2014-01-14 11:56:00
4:56 AM,46.9,14.0,27,30.34,10.0,WSW,9.2,-,N/A,,Clear,250,2014-01-14 12:56:00
5:56 AM,43.0,14.0,31,30.35,10.0,West,10.4,-,N/A,,Clear,270,2014-01-14 13:56:00
6:56 AM,46.0,15.1,29,30.37,10.0,West,10.4,-,N/A,,Clear,260,2014-01-14 14:56:00
7:56 AM,48.0,18.0,30,30.39,10.0,WSW,5.8,-,N/A,,Clear,250,2014-01-14 15:56:00
8:56 AM,57.9,21.9,25,30.41,10.0,WSW,6.9,-,N/A,,Clear,250,2014-01-14 16:56:00
9:56 AM,66.9,23.0,19,30.41,10.0,West,8.1,-,N/A,,Clear,270,2014-01-14 17:56:00
10:56 AM,75.0,17.1,11,30.38,10.0,WNW,6.9,-,N/A,,Clear,300,2014-01-14 18:56:00
11:56 AM,77.0,17.1,10,30.35,10.0,North,8.1,-,N/A,,Clear,10,2014-01-14 19:56:00
12:56 PM,79.0,16.0,9,30.31,10.0,NNE,9.2,-,N/A,,Clear,20,2014-01-14 20:56:00
1:56 PM,79.0,18.0,10,30.30,10.0,NNE,5.8,-,N/A,,Clear,20,2014-01-14 21:56:00
2:56 PM,79.0,17.1,10,30.29,10.0,NNE,3.5,-,N/A,,Clear,30,2014-01-14 22:56:00
3:56 PM,79.0,16.0,9,30.28,10.0,Calm,Calm,-,N/A,,Clear,0,2014-01-14 23:56:00
4:56 PM,73.9,21.0,14,30.29,10.0,Calm,Calm,-,N/A,,Clear,0,2014-01-15 00:56:00
5:56 PM,69.1,19.9,15,30.30,10.0,SW,4.6,-,N/A,,Clear,220,2014-01-15 01:56:00
6:56 PM,59.0,25.0,27,30.30,10.0,WSW,8.1,-,N/A,,Clear,250,2014-01-15 02:56:00
7:56 PM,57.0,18.0,22,30.31,10.0,WSW,9.2,-,N/A,,Clear,250,2014-01-15 03:56:00
8:56 PM,52.0,21.0,30,30.33,10.0,WSW,8.1,-,N/A,,Clear,240,2014-01-15 04:56:00
9:56 PM,50.0,17.1,27,30.32,10.0,WSW,10.4,-,N/A,,Clear,250,2014-01-15 05:56:00
10:56 PM,48.9,15.1,26,30.31,10.0,West,10.4,-,N/A,,Clear,260,2014-01-15 06:56:00
11:56 PM,50.0,18.0,28,30.30,10.0,WSW,8.1,-,N/A,,Clear,240,2014-01-15 07:56:00